sat.trackr.live / text

‹ back to catalog

STARLINK-31489

NORAD 59300 · 2024-056E

PAYLOAD ACTIVE UNKNOWN

§ Identity

Operator
Country
US
Launch date
2024-03-24
Launch site
AFETR
Launch vehicle
Mass (kg)
RCS (m²)

Purposes: comms

External: N2YO · Heavens-Above · Gunter

§ Orbital elements

Epoch: 2026-09-20T21:53:05.746848Z

Period
94.27 min
Inclination
43.0035°
Eccentricity
0.0001121
Mean motion
15.27596197 rev/d
Perigee alt
482.2 km
Apogee alt
483.8 km
Semi-major
6,861.1 km
B*
1.1370e-4
RAAN
207.9764°
Arg perigee
249.4388°
Mean anomaly
110.6343°
Rev number
14,101

§ Raw data

STARLINK-314891 59300U 24056E   26263.91187207  .00002869  00000+0  11370-3 0  99972 59300  43.0035 207.9764 0001121 249.4388 110.6343 15.27596197141019

JSON: /api/v1/satellites/59300 · /tle

For live sub-satellite position, see the globe view (requires WebGL).

§ Visibility from observer

Set your observer location to see the next 7 days of passes ≥ 10°. The values pass through the URL so the page stays shareable.

No JS? Fill the form by hand. The geolocation button needs JavaScript.